Regional Weather Roundup
Issued by NWS

Home | Current Version | Previous Version | Text Only | Print | Product List | Glossary Off
Versions: 1 2 3 4 5 6 7 8 9 10 11 12 13 14 15 16 17 18 19 20 21 22 23 24 25 26 27 28 29 30 31 32 33 34 35 36 37 38 39 40 41 42 43 44 45 46 47 48 49 50

000
ASUS45 KTFX 010910
RWRMT
MONTANA REGIONAL WEATHER ROUNDUP
NATIONAL WEATHER SERVICE GREAT FALLS MT
300 AM MDT SAT AUG 01 2015

NOTE: "FAIR" INDICATES FEW OR NO CLOUDS BELOW 12000 FEET WITH NO
SIGNIFICANT WEATHER AND/OR OBSTRUCTIONS TO VISIBILITY.

MTZ001>007-043-011000-
WEST OF THE DIVIDE

CITY           SKY/WX    TMP DP  RH WIND       PRES   REMARKS
KALISPELL      SUNNY     49  38  65 CALM      30.01S
MISSOULA       CLEAR     60  38  43 CALM      30.09R
BUTTE          CLEAR     50  35  56 CALM      30.25F
MULLAN PASS    CLEAR     69  21  16 NW6       30.23F
DEER LODGE       N/A     52  36  54 CALM      30.22S
EUREKA           N/A     61  36  39 E8        29.98F
HAMILTON         N/A     66  30  26 S13       30.10S
LIBBY            N/A     54  36  50 CALM      30.01S
PLAINS           N/A     56  39  52 CALM      30.03S
RONAN            N/A     53  41  64 CALM      30.07F
$$

MTZ008-052>055-011000-
SOUTHWEST MONTANA

CITY           SKY/WX    TMP DP  RH WIND       PRES   REMARKS
BOZEMAN        CLEAR     53  41  63 SE8       30.17S
DILLON         CLEAR     48  39  71 S10       30.22F
W YELLOWSTONE  CLEAR     37  36  93 CALM      30.35S
THREE FORKS      N/A     50  27  41 CALM      30.14S
TWIN BRIDGES     N/A     51  38  61 E2        30.18S
$$

MTZ009-010-012-014-046-048-049-054-011000-
EAST SLOPES AND CENTRAL MONTANA

CITY           SKY/WX    TMP DP  RH WIND       PRES   REMARKS
CUT BANK       CLEAR     56  32  40 W7        30.03F
GREAT FALLS    CLEAR     54  36  50 SW5       30.04F
MALMSTROM AFB  CLEAR     63  39  40 W7        30.04S
HELENA         CLEAR     63  35  35 CALM      30.11F
CONRAD           N/A     54  41  61 CALM      30.05F
$$

MTZ011-013-016-021-045-047-050-051-011000-
NORTH CENTRAL MONTANA

CITY           SKY/WX    TMP DP  RH WIND       PRES   REMARKS
HAVRE          CLEAR     61  45  55 CALM      29.94F
LEWISTOWN      CLEAR     55  41  59 SE7       30.09F
CHINOOK          N/A     61  46  59 E5        29.94F
FORT BENTON      N/A     64  41  42 SW6       30.00S
$$

MTZ017>020-022>027-061-062-011000-
NORTHEAST MONTANA

CITY           SKY/WX    TMP DP  RH WIND       PRES   REMARKS
GLASGOW        CLEAR     61  50  67 E10       29.96F
JORDAN           N/A     54  45  71 W3        30.00F
SIDNEY         CLEAR    N/A N/A N/A NW6       29.95S
WOLF POINT     CLEAR     60  50  69 E6        29.97F
MALTA            N/A     56  49  77 CALM      29.93F
PLENTYWOOD       N/A     64  48  55 SE6       29.99F
POPLAR           N/A     61  52  72 NE8       29.97F
SCOBEY           N/A     63  45  51 CALM      29.99S
$$

MTZ028>42-056>058-011000-
SOUTHCENTRAL AND SOUTHEAST MONTANA

CITY           SKY/WX    TMP DP  RH WIND       PRES   REMARKS
BAKER          CLEAR     62  49  62 NW3       30.00F
BILLINGS       CLEAR     67  43  41 SW10      30.10F
LIVINGSTON     CLEAR     52  40  63 W3        30.17F
MILES CITY     CLEAR     62  42  47 W7        29.99F
FORSYTH          N/A     68  39  34 SW3       30.01F
LAUREL           N/A     61  34  36 W1        30.08S
ROUNDUP          N/A     61  42  49 CALM      29.99F
$$

REGIONAL REPORTS...DAKOTAS

CITY           SKY/WX    TMP DP  RH WIND       PRES   REMARKS
WILLISTON      CLEAR     62  53  72 NE5       29.98F
MINOT          MOCLDY    54  50  86 CALM      29.99F
DICKINSON      CLEAR     55  49  80 E8        29.97F
CROSBY         FAIR      52  52 100 S5        30.00F
BISMARCK       MOCLDY    61  57  87 NE5       30.01F
GRAND FORKS    CLEAR     55  51  86 W7        29.95S
FARGO          CLEAR     57  54  89 CALM      29.98S
BUFFALO SD       N/A     65  50  58 S8        29.95F
RAPID CITY     PTCLDY    67  53  61 SW6       30.06F
$$

REGIONAL REPORTS...WYOMING/IDAHO/WASHINGTON

CITY           SKY/WX    TMP DP  RH WIND       PRES   REMARKS
GILLETTE       CLEAR     67  49  52 S14       30.11F
SHERIDAN       CLEAR     64  41  42 VRB3      30.10F
BUFFALO WY     CLEAR     66  37  34 VRB6      30.17F
CODY           CLEAR     64  34  32 SW5       30.21F
YELLOWSTONE LA   N/A     41  30  65 CALM      30.44F
IDAHO FALLS    CLEAR     50  44  80 NW6       30.19S
SALMON         PTCLDY    52  43  71 CALM      30.17S
BOISE          CLEAR     74  37  26 SE6       29.99F
SPOKANE        PTCLDY    73  22  14 SE7       29.96F
$$

REGIONAL REPORTS...ALBERTA

CITY           SKY/WX    TMP DP  RH WIND       PRES   REMARKS
EDMONTON       CLEAR     55  50  82 SW5       29.94F
CALGARY        PTCLDY    63  46  55 N12       30.00F
LETHBRIDGE     CLEAR     57  43  58 SW8       29.96F
MEDICINE HAT   CLEAR     64  43  45 SW12      29.88F
WATERTON GATE    N/A     54  39  58 SW7         N/A
MILK RIVER       N/A     54  39  58 W5          N/A
ONEFOUR          N/A     59  43  55 E9          N/A
$$

REGIONAL REPORTS...SASKATCHEWAN

CITY           SKY/WX    TMP DP  RH WIND       PRES   REMARKS
SWIFT CURRENT  CLEAR     61  52  72 S14G23    29.94F
REGINA         CLEAR     54  50  87 SE9       29.97F
SASKATOON      PTCLDY    59  54  82 SW6       29.92F
CYPRESS HILLS    N/A     64  41  42 S8          N/A
VAL MARIE        N/A     55  50  82 SE2         N/A
ROCKGLEN         N/A     55  48  76 E2          N/A
$$



USA.gov is the U.S. government's official web portal to all federal, state and local government web resources and services.